Weather History for Palmdale, CA

Change the Weather History Date:

Sunday, September 1, 2013

  Actual Average Record
Temperature  
Mean Temperature 85 °F 78 °F  
Max Temperature 94 °F 95 °F 109 °F (1996)
Min Temperature 75 °F 62 °F 47 °F (1937)
Degree Days  
Heating Degree Days 0 0  
Month to date heating degree days 0 0  
Since 1 July heating degree days 0 0  
Cooling Degree Days 20 13  
Month to date cooling degree days 20 13  
Year to date cooling degree days 1785 1495  
Growing Degree Days 34 (Base 50)    
Moisture  
Dew Point 59 °F    
Average Humidity 46    
Maximum Humidity 64    
Minimum Humidity 28    
Precipitation  
Precipitation 0.00 in 0.00 in 0.15 in (2007)
Month to date precipitation 0.00 0.00  
Year to date precipitation 0.99 5.56  
Since 1 July precipitation 0.13 0.24  
Snow  
Snow 0.00 in - 0.00 in (1973)
Month to date snowfall 0.0  
Since 1 July snowfall 0.0  
Since 1 September snowfall 0.0  
Snow Depth 0.00 in    
Sea Level Pressure  
Sea Level Pressure 29.88 in    
Wind  
Wind Speed 13 mph (WSW)    
Max Wind Speed 26 mph    
Max Gust Speed 33 mph    
Visibility 10 miles    
Events      
T = Trace of Precipitation, MM = Missing Value Source: NWS Daily Summary

Daily Weather History Graph

Daily Weather History Graph

Search for Another Location

Airport:

Trip Planner

Search our weather history database for the weather conditions in past years. The results will help you decide how hot, cold, wet, or windy it might be!

Date:

Astronomy

Sep. 01, 2013 Rise Set
Actual Time 6:25 AM PDT 7:18 PM PDT
Civil Twilight 5:59 AM PDT 7:43 PM PDT
Nautical Twilight 5:29 AM PDT 8:14 PM PDT
Astronomical Twilight 4:58 AM PDT 8:45 PM PDT
Moon 2:57 AM PDT (9/1) 4:53 PM PDT (9/1)
Length of Visible Light 13h 43m
Length of Day
12h 52m
Waning Crescent, 13% of the Moon is Illuminated
Sep 1
Waning Crescent
Sep 5
New
Sep 12
First Quarter
Sep 19
Full
Sep 26
Last Quarter

Hourly Weather History & Observations

Time (PDT) Temp. Heat Index Dew Point Humidity Pressure Visibility Wind Dir Wind Speed Gust Speed Precip Events Conditions
12:53 AM 77.0 °F - 62.1 °F 60% 29.91 in 10.0 mi WSW 9.2 mph - N/A   Clear
1:53 AM 75.0 °F - 63.0 °F 66% 29.90 in 10.0 mi SW 9.2 mph - N/A   Clear
2:53 AM 75.9 °F - 62.1 °F 62% 29.89 in 10.0 mi West 5.8 mph - N/A   Clear
3:53 AM 75.9 °F - 60.1 °F 58% 29.88 in 10.0 mi WSW 11.5 mph - N/A   Clear
4:53 AM 75.9 °F - 60.1 °F 58% 29.88 in 10.0 mi SW 16.1 mph - N/A   Clear
5:53 AM 77.0 °F - 57.9 °F 52% 29.89 in 10.0 mi SW 13.8 mph - N/A   Clear
6:53 AM 75.9 °F - 59.0 °F 56% 29.90 in 10.0 mi WSW 4.6 mph - N/A   Clear
7:53 AM 79.0 °F - 57.9 °F 48% 29.91 in 10.0 mi SW 9.2 mph - N/A   Clear
8:53 AM 82.0 °F 81.7 °F 57.0 °F 42% 29.91 in 10.0 mi SW 10.4 mph - N/A   Clear
9:53 AM 84.9 °F 83.9 °F 57.0 °F 38% 29.91 in 10.0 mi WSW 8.1 mph - N/A   Clear
10:53 AM 88.0 °F 86.1 °F 55.0 °F 32% 29.90 in 10.0 mi West 12.7 mph 18.4 mph N/A   Clear
11:53 AM 90.0 °F 87.9 °F 55.0 °F 30% 29.89 in 10.0 mi WSW 13.8 mph - N/A   Clear
12:53 PM 91.9 °F 90.6 °F 57.0 °F 31% 29.87 in 10.0 mi WSW 18.4 mph 23.0 mph N/A   Clear
1:53 PM 93.0 °F 91.4 °F 55.9 °F 29% 29.86 in 10.0 mi WSW 19.6 mph 27.6 mph N/A   Clear
2:53 PM 93.0 °F 91.1 °F 55.0 °F 28% 29.83 in 10.0 mi WSW 20.7 mph 31.1 mph N/A   Clear
3:53 PM 90.0 °F 87.9 °F 55.0 °F 30% 29.83 in 10.0 mi WSW 18.4 mph 29.9 mph N/A   Clear
4:53 PM 89.1 °F 87.7 °F 57.0 °F 34% 29.83 in 10.0 mi WSW 18.4 mph 28.8 mph N/A   Clear
5:53 PM 87.1 °F 86.7 °F 60.1 °F 40% 29.83 in 10.0 mi WSW 20.7 mph 27.6 mph N/A   Clear
6:53 PM 84.0 °F 84.0 °F 60.1 °F 44% 29.84 in 10.0 mi SW 20.7 mph - N/A   Clear
7:53 PM 82.0 °F 82.7 °F 61.0 °F 49% 29.85 in 10.0 mi SW 19.6 mph - N/A   Clear
8:53 PM 80.1 °F 81.1 °F 61.0 °F 52% 29.87 in 10.0 mi SW 17.3 mph - N/A   Clear
9:53 PM 79.0 °F - 61.0 °F 54% 29.88 in 10.0 mi SW 16.1 mph - N/A   Clear
10:53 PM 78.1 °F - 60.1 °F 54% 29.88 in 10.0 mi Calm Calm - N/A   Clear
11:53 PM 77.0 °F - 61.0 °F 58% 29.88 in 10.0 mi WNW 8.1 mph - N/A   Clear